| time (UTC) | temp C | wind direction | speed KPH | gust KPH | rain 1hr cm | rain 24hr cm | rain mn cm | humidity % | barometer mb |
| 20260509060411 | 8 | 106 | 0.0 | 4.8 | 0.00 | 0.00 | 0.00 | 63 | 931.1 |
| 20260509055906 | 7 | 133 | 3.2 | 8.0 | 0.00 | 0.00 | 0.00 | 62 | 930.9 |
| 20260509055401 | 7 | 100 | 4.8 | 8.0 | 0.00 | 0.00 | 0.00 | 63 | 931.0 |
| 20260509054858 | 8 | 122 | 3.2 | 4.8 | 0.00 | 0.00 | 0.00 | 62 | 930.9 |
| 20260509054355 | 8 | 51 | 0.0 | 0.0 | 0.00 | 0.00 | 0.00 | 64 | 930.9 |
| 20260509053853 | 8 | 79 | 0.0 | 0.0 | 0.00 | 0.00 | 0.00 | 60 | 930.9 |
| 20260509053350 | 8 | 82 | 0.0 | 0.0 | 0.00 | 0.00 | 0.00 | 59 | 931.0 |
| 20260509052849 | 8 | 114 | 0.0 | 0.0 | 0.00 | 0.00 | 0.00 | 60 | 931.1 |
| 20260509052346 | 8 | 120 | 0.0 | 0.0 | 0.00 | 0.00 | 0.00 | 61 | 931.0 |
| 20260509051843 | 8 | 98 | 0.0 | 0.0 | 0.00 | 0.00 | 0.00 | 62 | 931.0 |
| 20260509051341 | 9 | 80 | 0.0 | 0.0 | 0.00 | 0.00 | 0.00 | 59 | 931.0 |
| 20260509050838 | 9 | 77 | 0.0 | 0.0 | 0.00 | 0.00 | 0.00 | 59 | 931.1 |
| 20260509050335 | 8 | 91 | 0.0 | 0.0 | 0.00 | 0.00 | 0.00 | 60 | 931.1 |
| 20260509045831 | 8 | 90 | 0.0 | 0.0 | 0.00 | 0.00 | 0.00 | 61 | 930.9 |
| 20260509045328 | 10 | 90 | 0.0 | 0.0 | 0.00 | 0.00 | 0.00 | 58 | 930.9 |
| 20260509044826 | 10 | 72 | 0.0 | 0.0 | 0.00 | 0.00 | 0.00 | 57 | 930.9 |
| 20260509044323 | 9 | 63 | 0.0 | 0.0 | 0.00 | 0.00 | 0.00 | 61 | 930.9 |
| 20260509043819 | 8 | 71 | 0.0 | 0.0 | 0.00 | 0.00 | 0.00 | 62 | 931.0 |
| 20260509043316 | 8 | 48 | 0.0 | 0.0 | 0.00 | 0.00 | 0.00 | 61 | 930.8 |
| 20260509042811 | 10 | 56 | 0.0 | 0.0 | 0.00 | 0.00 | 0.00 | 55 | 930.9 |
| 20260509042308 | 11 | 55 | 0.0 | 0.0 | 0.00 | 0.00 | 0.00 | 53 | 930.8 |
| 20260509041804 | 11 | 55 | 0.0 | 0.0 | 0.00 | 0.00 | 0.00 | 54 | 931.0 |
| 20260509041302 | 10 | 48 | 0.0 | 0.0 | 0.00 | 0.00 | 0.00 | 54 | 930.8 |
| 20260509040800 | 10 | 52 | 0.0 | 0.0 | 0.00 | 0.00 | 0.00 | 54 | 930.9 |
| 20260509040257 | 10 | 52 | 0.0 | 0.0 | 0.00 | 0.00 | 0.00 | 55 | 930.8 |
| 20260509035754 | 11 | 51 | 0.0 | 0.0 | 0.00 | 0.00 | 0.00 | 54 | 930.7 |
| 20260509035251 | 11 | 49 | 0.0 | 0.0 | 0.00 | 0.00 | 0.00 | 53 | 930.5 |
| 20260509034747 | 11 | 50 | 0.0 | 0.0 | 0.00 | 0.00 | 0.00 | 53 | 930.5 |
| 20260509034245 | 12 | 35 | 0.0 | 0.0 | 0.00 | 0.00 | 0.00 | 51 | 930.3 |
| 20260509033742 | 12 | 31 | 0.0 | 0.0 | 0.00 | 0.00 | 0.00 | 49 | 930.4 |
| 20260509033239 | 12 | 39 | 0.0 | 1.6 | 0.00 | 0.00 | 0.00 | 46 | 930.4 |
| 20260509032736 | 12 | 42 | 0.0 | 0.0 | 0.00 | 0.00 | 0.00 | 47 | 930.3 |
| 20260509032233 | 13 | 42 | 0.0 | 0.0 | 0.00 | 0.00 | 0.00 | 46 | 930.3 |
| 20260509031731 | 13 | 41 | 0.0 | 0.0 | 0.00 | 0.00 | 0.00 | 44 | 930.1 |
| 20260509031228 | 13 | 325 | 0.0 | 8.0 | 0.00 | 0.00 | 0.00 | 44 | 930.1 |
| 20260509030726 | 13 | 350 | 0.0 | 0.0 | 0.00 | 0.00 | 0.00 | 45 | 930.2 |
| 20260509030223 | 13 | 247 | 0.0 | 1.6 | 0.00 | 0.00 | 0.00 | 44 | 930.0 |
| 20260509025720 | 14 | 44 | 0.0 | 0.0 | 0.00 | 0.00 | 0.00 | 43 | 930.0 |
| 20260509025216 | 15 | 20 | 0.0 | 0.0 | 0.00 | 0.00 | 0.00 | 42 | 929.9 |
| 20260509024711 | 15 | 346 | 0.0 | 0.0 | 0.00 | 0.00 | 0.00 | 41 | 929.9 |
| 20260509024207 | 15 | 15 | 0.0 | 0.0 | 0.00 | 0.00 | 0.00 | 41 | 929.6 |
| 20260509023705 | 15 | 29 | 0.0 | 0.0 | 0.00 | 0.00 | 0.00 | 40 | 929.9 |
| 20260509023202 | 16 | 23 | 0.0 | 0.0 | 0.00 | 0.00 | 0.00 | 39 | 930.0 |
| 20260509022657 | 16 | 10 | 0.0 | 0.0 | 0.00 | 0.00 | 0.00 | 38 | 930.0 |
| 20260509022156 | 16 | 263 | 4.8 | 4.8 | 0.00 | 0.00 | 0.00 | 37 | 930.0 |
| 20260509021652 | 16 | 337 | 0.0 | 0.0 | 0.00 | 0.00 | 0.00 | 36 | 929.9 |
| 20260509021149 | 17 | 1 | 3.2 | 4.8 | 0.00 | 0.00 | 0.00 | 35 | 930.0 |
| 20260509020648 | 17 | 302 | 0.0 | 1.6 | 0.00 | 0.00 | 0.00 | 35 | 929.9 |
| 20260509020144 | 17 | 3 | 0.0 | 3.2 | 0.00 | 0.00 | 0.00 | 36 | 929.7 |
| 20260509015643 | 17 | 330 | 0.0 | 8.0 | 0.00 | 0.00 | 0.00 | 34 | 930.0 |
| 20260509015140 | 17 | 308 | 8.0 | 12.9 | 0.00 | 0.00 | 0.00 | 34 | 929.7 |
| 20260509014637 | 18 | 297 | 1.6 | 11.3 | 0.00 | 0.00 | 0.00 | 33 | 929.5 |
| 20260509014133 | 18 | 355 | 4.8 | 12.9 | 0.00 | 0.00 | 0.00 | 32 | 929.9 |
| 20260509013630 | 18 | 329 | 1.6 | 14.5 | 0.00 | 0.00 | 0.00 | 32 | 930.0 |
| 20260509013126 | 18 | 308 | 4.8 | 12.9 | 0.00 | 0.00 | 0.00 | 31 | 930.1 |
| 20260509012623 | 18 | 351 | 0.0 | 11.3 | 0.00 | 0.00 | 0.00 | 31 | 930.1 |
| 20260509012119 | 18 | 324 | 6.4 | 12.9 | 0.00 | 0.00 | 0.00 | 31 | 930.2 |
| 20260509011618 | 18 | 305 | 14.5 | 20.9 | 0.00 | 0.00 | 0.00 | 30 | 930.2 |
| 20260509011114 | 19 | 314 | 9.7 | 12.9 | 0.00 | 0.00 | 0.00 | 30 | 930.3 |
| 20260509010612 | 19 | 326 | 6.4 | 16.1 | 0.00 | 0.00 | 0.00 | 30 | 930.3 |
| 20260509010108 | 19 | 335 | 8.0 | 20.9 | 0.00 | 0.00 | 0.00 | 30 | 930.5 |
| 20260509005606 | 20 | 310 | 11.3 | 17.7 | 0.00 | 0.00 | 0.00 | 30 | 930.3 |
| 20260509005101 | 20 | 41 | 0.0 | 3.2 | 0.00 | 0.00 | 0.00 | 31 | 930.4 |
| 20260509004558 | 18 | 12 | 0.0 | 12.9 | 0.00 | 0.00 | 0.00 | 31 | 930.2 |
| 20260509004055 | 19 | 318 | 1.6 | 12.9 | 0.00 | 0.00 | 0.00 | 31 | 930.2 |
| 20260509003554 | 19 | 0 | 0.0 | 12.9 | 0.00 | 0.00 | 0.00 | 32 | 930.3 |
| 20260509003051 | 20 | 293 | 6.4 | 14.5 | 0.00 | 0.00 | 0.00 | 31 | 930.4 |
| 20260509002548 | 19 | 343 | 8.0 | 9.7 | 0.00 | 0.00 | 0.00 | 31 | 930.1 |
| 20260509002045 | 19 | 302 | 6.4 | 29.0 | 0.00 | 0.00 | 0.00 | 31 | 930.3 |
| 20260509001542 | 20 | 312 | 14.5 | 25.7 | 0.00 | 0.00 | 0.00 | 30 | 930.9 |
| 20260509001038 | 19 | 299 | 4.8 | 16.1 | 0.00 | 0.00 | 0.00 | 31 | 930.9 |
| 20260509000537 | 19 | 333 | 16.1 | 25.7 | 0.00 | 0.00 | 0.00 | 31 | 930.5 |
| 20260509000033 | 19 | 6 | 17.7 | 20.9 | 0.00 | 0.00 | 0.00 | 31 | 930.8 |
| 20260508235531 | 19 | 337 | 11.3 | 17.7 | 0.00 | 0.00 | 0.00 | 31 | 930.5 |
| 20260508235026 | 18 | 355 | 11.3 | 20.9 | 0.00 | 0.00 | 0.00 | 33 | 930.5 |
| 20260508234524 | 19 | 299 | 6.4 | 16.1 | 0.00 | 0.00 | 0.00 | 31 | 930.4 |
| 20260508234021 | 19 | 302 | 3.2 | 22.5 | 0.00 | 0.00 | 0.00 | 32 | 930.7 |
| 20260508233520 | 18 | 357 | 14.5 | 22.5 | 0.00 | 0.00 | 0.00 | 32 | 930.3 |
| 20260508233017 | 19 | 271 | 8.0 | 12.9 | 0.00 | 0.00 | 0.00 | 31 | 930.4 |
| 20260508232514 | 20 | 238 | 6.4 | 11.3 | 0.00 | 0.00 | 0.00 | 30 | 930.4 |
| 20260508232011 | 20 | 328 | 17.7 | 22.5 | 0.00 | 0.00 | 0.00 | 30 | 930.4 |
| 20260508231508 | 20 | 224 | 1.6 | 20.9 | 0.00 | 0.00 | 0.00 | 30 | 930.4 |
| 20260508231005 | 20 | 275 | 8.0 | 32.2 | 0.00 | 0.00 | 0.00 | 30 | 930.3 |
| 20260508230502 | 20 | 255 | 8.0 | 14.5 | 0.00 | 0.00 | 0.00 | 30 | 930.5 |
| 20260508225958 | 20 | 301 | 4.8 | 16.1 | 0.00 | 0.00 | 0.00 | 30 | 930.3 |
| 20260508225456 | 20 | 230 | 16.1 | 22.5 | 0.00 | 0.00 | 0.00 | 29 | 930.4 |
| 20260508224953 | 20 | 293 | 6.4 | 27.4 | 0.00 | 0.00 | 0.00 | 29 | 930.2 |
| 20260508224450 | 20 | 326 | 9.7 | 16.1 | 0.00 | 0.00 | 0.00 | 29 | 930.2 |
| 20260508223947 | 20 | 282 | 9.7 | 32.2 | 0.00 | 0.00 | 0.00 | 30 | 930.3 |
| 20260508223445 | 20 | 356 | 12.9 | 20.9 | 0.00 | 0.00 | 0.00 | 28 | 930.3 |
| 20260508222942 | 20 | 337 | 9.7 | 27.4 | 0.00 | 0.00 | 0.00 | 29 | 930.4 |
| 20260508222440 | 20 | 301 | 9.7 | 33.8 | 0.00 | 0.00 | 0.00 | 30 | 930.1 |
| 20260508221936 | 20 | 242 | 11.3 | 24.1 | 0.00 | 0.00 | 0.00 | 28 | 930.2 |
| 20260508221432 | 20 | 288 | 9.7 | 17.7 | 0.00 | 0.00 | 0.00 | 29 | 930.4 |
| 20260508220928 | 21 | 298 | 1.6 | 25.7 | 0.00 | 0.00 | 0.00 | 30 | 930.4 |
| 20260508220425 | 20 | 249 | 3.2 | 16.1 | 0.00 | 0.00 | 0.00 | 30 | 930.7 |
| 20260508215921 | 21 | 274 | 6.4 | 20.9 | 0.00 | 0.00 | 0.00 | 30 | 930.4 |
| 20260508215418 | 20 | 290 | 24.1 | 33.8 | 0.00 | 0.00 | 0.00 | 31 | 930.4 |
| 20260508214915 | 21 | 290 | 14.5 | 17.7 | 0.00 | 0.00 | 0.00 | 31 | 930.7 |
| 20260508214413 | 20 | 314 | 8.0 | 25.7 | 0.00 | 0.00 | 0.00 | 30 | 930.5 |
| 20260508213908 | 20 | 281 | 12.9 | 22.5 | 0.00 | 0.00 | 0.00 | 29 | 930.5 |
| 20260508213406 | 20 | 245 | 11.3 | 20.9 | 0.00 | 0.00 | 0.00 | 29 | 930.7 |
| 20260508212901 | 20 | 247 | 12.9 | 17.7 | 0.00 | 0.00 | 0.00 | 30 | 930.4 |
| 20260508212358 | 20 | 281 | 8.0 | 25.7 | 0.00 | 0.00 | 0.00 | 30 | 930.5 |
| 20260508211854 | 20 | 290 | 17.7 | 27.4 | 0.00 | 0.00 | 0.00 | 29 | 930.8 |
| 20260508211350 | 20 | 218 | 3.2 | 14.5 | 0.00 | 0.00 | 0.00 | 29 | 930.3 |
| 20260508210847 | 20 | 308 | 20.9 | 29.0 | 0.00 | 0.00 | 0.00 | 29 | 930.7 |
| 20260508210344 | 20 | 236 | 14.5 | 20.9 | 0.00 | 0.00 | 0.00 | 29 | 930.7 |
| 20260508205840 | 20 | 316 | 11.3 | 29.0 | 0.00 | 0.00 | 0.00 | 28 | 930.8 |
| 20260508205337 | 20 | 265 | 11.3 | 20.9 | 0.00 | 0.00 | 0.00 | 27 | 930.4 |
| 20260508204833 | 20 | 314 | 16.1 | 20.9 | 0.00 | 0.00 | 0.00 | 28 | 930.7 |
| 20260508204330 | 20 | 302 | 11.3 | 16.1 | 0.00 | 0.00 | 0.00 | 29 | 930.4 |
| 20260508203826 | 20 | 354 | 8.0 | 17.7 | 0.00 | 0.00 | 0.00 | 30 | 930.9 |
| 20260508203323 | 19 | 248 | 17.7 | 24.1 | 0.00 | 0.00 | 0.00 | 29 | 930.7 |
| 20260508202819 | 20 | 318 | 16.1 | 25.7 | 0.00 | 0.00 | 0.00 | 29 | 930.9 |
| 20260508202316 | 20 | 342 | 11.3 | 20.9 | 0.00 | 0.00 | 0.00 | 29 | 930.8 |
| 20260508201813 | 19 | 253 | 16.1 | 25.7 | 0.00 | 0.00 | 0.00 | 29 | 930.8 |
| 20260508201310 | 20 | 272 | 14.5 | 17.7 | 0.00 | 0.00 | 0.00 | 29 | 930.7 |
| 20260508200806 | 20 | 283 | 11.3 | 29.0 | 0.00 | 0.00 | 0.00 | 29 | 930.8 |
| 20260508200303 | 20 | 293 | 9.7 | 20.9 | 0.00 | 0.00 | 0.00 | 29 | 930.8 |
| 20260508195759 | 18 | 284 | 8.0 | 17.7 | 0.00 | 0.00 | 0.00 | 30 | 930.8 |
| 20260508195255 | 19 | 284 | 17.7 | 24.1 | 0.00 | 0.00 | 0.00 | 30 | 930.8 |
| 20260508194752 | 19 | 4 | 11.3 | 20.9 | 0.00 | 0.00 | 0.00 | 31 | 930.8 |
| 20260508194249 | 19 | 272 | 4.8 | 16.1 | 0.00 | 0.00 | 0.00 | 30 | 931.0 |
| 20260508193746 | 19 | 330 | 6.4 | 22.5 | 0.00 | 0.00 | 0.00 | 31 | 931.0 |
| 20260508193243 | 19 | 246 | 14.5 | 29.0 | 0.00 | 0.00 | 0.00 | 30 | 930.8 |
| 20260508192739 | 19 | 293 | 11.3 | 20.9 | 0.00 | 0.00 | 0.00 | 30 | 931.0 |
| 20260508192236 | 18 | 325 | 14.5 | 20.9 | 0.00 | 0.00 | 0.00 | 31 | 931.0 |
| 20260508191734 | 19 | 337 | 11.3 | 27.4 | 0.00 | 0.00 | 0.00 | 31 | 931.0 |
| 20260508191231 | 19 | 253 | 14.5 | 20.9 | 0.00 | 0.00 | 0.00 | 29 | 931.1 |
| 20260508190728 | 19 | 335 | 11.3 | 16.1 | 0.00 | 0.00 | 0.00 | 29 | 931.0 |
| 20260508190224 | 18 | 261 | 11.3 | 17.7 | 0.00 | 0.00 | 0.00 | 30 | 930.9 |
| 20260508185721 | 18 | 258 | 1.6 | 27.4 | 0.00 | 0.00 | 0.00 | 30 | 931.0 |
| 20260508185218 | 19 | 188 | 8.0 | 22.5 | 0.00 | 0.00 | 0.00 | 30 | 931.1 |
| 20260508184715 | 18 | 265 | 11.3 | 27.4 | 0.00 | 0.00 | 0.00 | 30 | 931.0 |
| 20260508184212 | 18 | 314 | 14.5 | 20.9 | 0.00 | 0.00 | 0.00 | 31 | 931.2 |
| 20260508183709 | 18 | 247 | 8.0 | 14.5 | 0.00 | 0.00 | 0.00 | 30 | 931.2 |
| 20260508183205 | 18 | 255 | 6.4 | 17.7 | 0.00 | 0.00 | 0.00 | 33 | 931.2 |
| 20260508182701 | 18 | 331 | 6.4 | 22.5 | 0.00 | 0.00 | 0.00 | 31 | 931.1 |
| 20260508182158 | 18 | 243 | 8.0 | 14.5 | 0.00 | 0.00 | 0.00 | 31 | 931.3 |
| 20260508181654 | 18 | 247 | 12.9 | 20.9 | 0.00 | 0.00 | 0.00 | 30 | 931.1 |
| 20260508181151 | 18 | 245 | 9.7 | 20.9 | 0.00 | 0.00 | 0.00 | 30 | 931.3 |
| 20260508180647 | 18 | 304 | 9.7 | 17.7 | 0.00 | 0.00 | 0.00 | 31 | 931.2 |
| 20260508180144 | 18 | 297 | 16.1 | 27.4 | 0.00 | 0.00 | 0.00 | 29 | 931.2 |
| 20260508175641 | 18 | 311 | 11.3 | 16.1 | 0.00 | 0.00 | 0.00 | 29 | 931.2 |
| 20260508175138 | 18 | 52 | 12.9 | 24.1 | 0.00 | 0.00 | 0.00 | 30 | 931.6 |
| 20260508174635 | 17 | 289 | 11.3 | 27.4 | 0.00 | 0.00 | 0.00 | 31 | 931.2 |
| 20260508174132 | 18 | 271 | 17.7 | 24.1 | 0.00 | 0.00 | 0.00 | 30 | 931.6 |
| 20260508173629 | 18 | 254 | 9.7 | 12.9 | 0.00 | 0.00 | 0.00 | 30 | 931.3 |
| 20260508173125 | 17 | 317 | 9.7 | 20.9 | 0.00 | 0.00 | 0.00 | 31 | 931.5 |
| 20260508172622 | 17 | 273 | 9.7 | 17.7 | 0.00 | 0.00 | 0.00 | 31 | 931.9 |
| 20260508172119 | 18 | 253 | 9.7 | 22.5 | 0.00 | 0.00 | 0.00 | 31 | 931.7 |
| 20260508171615 | 18 | 281 | 11.3 | 20.9 | 0.00 | 0.00 | 0.00 | 30 | 931.6 |
| 20260508171112 | 17 | 254 | 12.9 | 16.1 | 0.00 | 0.00 | 0.00 | 30 | 931.5 |
| 20260508170609 | 17 | 316 | 9.7 | 20.9 | 0.00 | 0.00 | 0.00 | 30 | 931.7 |
| 20260508170107 | 17 | 350 | 6.4 | 14.5 | 0.00 | 0.00 | 0.00 | 31 | 931.6 |
| 20260508165603 | 17 | 306 | 8.0 | 22.5 | 0.00 | 0.00 | 0.00 | 33 | 931.5 |
| 20260508165100 | 17 | 278 | 6.4 | 9.7 | 0.00 | 0.00 | 0.00 | 31 | 931.8 |
| 20260508164556 | 17 | 257 | 6.4 | 16.1 | 0.00 | 0.00 | 0.00 | 32 | 931.8 |
| 20260508164053 | 17 | 354 | 11.3 | 16.1 | 0.00 | 0.00 | 0.00 | 33 | 931.7 |
| 20260508163551 | 17 | 257 | 1.6 | 20.9 | 0.00 | 0.00 | 0.00 | 33 | 931.6 |
| 20260508163048 | 17 | 358 | 1.6 | 14.5 | 0.00 | 0.00 | 0.00 | 31 | 931.8 |
| 20260508162544 | 17 | 191 | 8.0 | 11.3 | 0.00 | 0.00 | 0.00 | 31 | 931.3 |
| 20260508162042 | 17 | 343 | 12.9 | 17.7 | 0.00 | 0.00 | 0.00 | 32 | 931.6 |
| 20260508161538 | 16 | 232 | 6.4 | 20.9 | 0.00 | 0.00 | 0.00 | 33 | 931.6 |
| 20260508161036 | 16 | 269 | 14.5 | 20.9 | 0.00 | 0.00 | 0.00 | 33 | 931.5 |
| 20260508160534 | 16 | 261 | 4.8 | 17.7 | 0.00 | 0.00 | 0.00 | 33 | 931.3 |
| 20260508160031 | 16 | 270 | 6.4 | 14.5 | 0.00 | 0.00 | 0.00 | 35 | 931.5 |
| 20260508155528 | 16 | 269 | 11.3 | 22.5 | 0.00 | 0.00 | 0.00 | 33 | 931.7 |
| 20260508155025 | 16 | 332 | 3.2 | 11.3 | 0.00 | 0.00 | 0.00 | 34 | 931.6 |
| 20260508154522 | 15 | 323 | 11.3 | 17.7 | 0.00 | 0.00 | 0.00 | 34 | 931.7 |
| 20260508154019 | 15 | 262 | 14.5 | 16.1 | 0.00 | 0.00 | 0.00 | 34 | 931.7 |
| 20260508153515 | 15 | 312 | 8.0 | 16.1 | 0.00 | 0.00 | 0.00 | 35 | 931.2 |
| 20260508153012 | 16 | 319 | 9.7 | 11.3 | 0.00 | 0.00 | 0.00 | 39 | 931.6 |
| 20260508152509 | 15 | 254 | 4.8 | 11.3 | 0.00 | 0.00 | 0.00 | 39 | 931.6 |
| 20260508152004 | 15 | 260 | 4.8 | 8.0 | 0.00 | 0.00 | 0.00 | 42 | 931.5 |
| 20260508151501 | 15 | 146 | 3.2 | 3.2 | 0.00 | 0.00 | 0.00 | 44 | 931.5 |
| 20260508150958 | 15 | 170 | 4.8 | 9.7 | 0.00 | 0.00 | 0.00 | 47 | 931.7 |
| 20260508150455 | 14 | 57 | 0.0 | 1.6 | 0.00 | 0.00 | 0.00 | 48 | 931.5 |
| 20260508145950 | 13 | 79 | 3.2 | 4.8 | 0.00 | 0.00 | 0.00 | 49 | 931.6 |
| 20260508145447 | 13 | 60 | 0.0 | 1.6 | 0.00 | 0.00 | 0.00 | 49 | 931.6 |
| 20260508144944 | 13 | 37 | 0.0 | 3.2 | 0.00 | 0.00 | 0.00 | 51 | 931.8 |
| 20260508144442 | 13 | 68 | 0.0 | 0.0 | 0.00 | 0.00 | 0.00 | 49 | 931.6 |
| 20260508143939 | 12 | 63 | 0.0 | 0.0 | 0.00 | 0.00 | 0.00 | 50 | 931.6 |
| 20260508143437 | 12 | 67 | 0.0 | 0.0 | 0.00 | 0.00 | 0.00 | 51 | 931.6 |
| 20260508142932 | 11 | 67 | 0.0 | 0.0 | 0.00 | 0.00 | 0.00 | 54 | 931.6 |
| 20260508142430 | 11 | 49 | 0.0 | 1.6 | 0.00 | 0.00 | 0.00 | 56 | 931.6 |
| 20260508141926 | 11 | 60 | 1.6 | 1.6 | 0.00 | 0.00 | 0.00 | 58 | 931.8 |
| 20260508141423 | 10 | 70 | 0.0 | 3.2 | 0.00 | 0.00 | 0.00 | 59 | 931.7 |
| 20260508140921 | 10 | 68 | 0.0 | 0.0 | 0.00 | 0.00 | 0.00 | 62 | 931.8 |
| 20260508140417 | 8 | 62 | 3.2 | 4.8 | 0.00 | 0.00 | 0.00 | 64 | 931.8 |
| 20260508135913 | 7 | 79 | 3.2 | 3.2 | 0.00 | 0.00 | 0.00 | 66 | 931.9 |
| 20260508135410 | 7 | 66 | 1.6 | 3.2 | 0.00 | 0.00 | 0.00 | 69 | 932.1 |
| 20260508134907 | 6 | 77 | 3.2 | 3.2 | 0.00 | 0.00 | 0.00 | 71 | 932.1 |
| 20260508134403 | 6 | 64 | 1.6 | 1.6 | 0.00 | 0.00 | 0.00 | 70 | 932.4 |
| 20260508133859 | 6 | 91 | 0.0 | 0.0 | 0.00 | 0.00 | 0.00 | 70 | 932.6 |
| 20260508133358 | 6 | 126 | 4.8 | 9.7 | 0.00 | 0.00 | 0.00 | 70 | 932.9 |
| 20260508132854 | 6 | 116 | 4.8 | 4.8 | 0.00 | 0.00 | 0.00 | 70 | 933.3 |
| 20260508132352 | 5 | 123 | 4.8 | 4.8 | 0.00 | 0.00 | 0.00 | 71 | 933.1 |
| 20260508131848 | 5 | 112 | 4.8 | 8.0 | 0.00 | 0.00 | 0.00 | 73 | 932.7 |
| 20260508131344 | 5 | 101 | 3.2 | 4.8 | 0.00 | 0.00 | 0.00 | 73 | 932.1 |
| 20260508130841 | 5 | 117 | 0.0 | 3.2 | 0.00 | 0.00 | 0.00 | 73 | 931.2 |
| 20260508130338 | 4 | 116 | 4.8 | 4.8 | 0.00 | 0.00 | 0.00 | 75 | 931.1 |
| 20260508125834 | 3 | 93 | 3.2 | 4.8 | 0.00 | 0.00 | 0.00 | 78 | 930.8 |
| 20260508125330 | 3 | 96 | 0.0 | 4.8 | 0.00 | 0.00 | 0.00 | 78 | 931.0 |
| 20260508124828 | 2 | 121 | 0.0 | 0.0 | 0.00 | 0.00 | 0.00 | 79 | 930.8 |
| 20260508124325 | 2 | 102 | 3.2 | 8.0 | 0.00 | 0.00 | 0.00 | 80 | 930.8 |
| 20260508123823 | 2 | 117 | 0.0 | 0.0 | 0.00 | 0.00 | 0.00 | 82 | 930.7 |
| 20260508123321 | 2 | 121 | 4.8 | 4.8 | 0.00 | 0.00 | 0.00 | 82 | 930.8 |
| 20260508122817 | 2 | 98 | 3.2 | 4.8 | 0.00 | 0.00 | 0.00 | 82 | 930.5 |
| 20260508122314 | 1 | 83 | 0.0 | 0.0 | 0.00 | 0.00 | 0.00 | 82 | 930.7 |
| 20260508121812 | 1 | 82 | 0.0 | 3.2 | 0.00 | 0.00 | 0.00 | 82 | 930.7 |
| 20260508121310 | 2 | 70 | 0.0 | 0.0 | 0.00 | 0.00 | 0.00 | 81 | 930.7 |
| 20260508120807 | 2 | 119 | 0.0 | 3.2 | 0.00 | 0.00 | 0.00 | 82 | 930.4 |
| 20260508120305 | 2 | 82 | 1.6 | 3.2 | 0.00 | 0.00 | 0.00 | 82 | 930.5 |
| 20260508115802 | 2 | 75 | 1.6 | 3.2 | 0.00 | 0.00 | 0.00 | 82 | 930.4 |
| 20260508115259 | 2 | 70 | 1.6 | 3.2 | 0.00 | 0.00 | 0.00 | 83 | 930.4 |
| 20260508114756 | 2 | 79 | 3.2 | 3.2 | 0.00 | 0.00 | 0.00 | 83 | 930.5 |
| 20260508114253 | 2 | 67 | 1.6 | 3.2 | 0.00 | 0.00 | 0.00 | 83 | 930.5 |
| 20260508113749 | 2 | 81 | 1.6 | 3.2 | 0.00 | 0.00 | 0.00 | 83 | 930.4 |
| 20260508113248 | 2 | 61 | 1.6 | 1.6 | 0.00 | 0.00 | 0.00 | 83 | 930.3 |
| 20260508112744 | 1 | 52 | 0.0 | 1.6 | 0.00 | 0.00 | 0.00 | 83 | 930.4 |
| 20260508112241 | 2 | 53 | 0.0 | 0.0 | 0.00 | 0.00 | 0.00 | 82 | 930.7 |
| 20260508111737 | 2 | 54 | 0.0 | 1.6 | 0.00 | 0.00 | 0.00 | 81 | 930.4 |
| 20260508111235 | 2 | 81 | 3.2 | 4.8 | 0.00 | 0.00 | 0.00 | 82 | 930.4 |
| 20260508110732 | 2 | 49 | 1.6 | 1.6 | 0.00 | 0.00 | 0.00 | 81 | 930.5 |
| 20260508110229 | 2 | 75 | 3.2 | 3.2 | 0.00 | 0.00 | 0.00 | 80 | 930.4 |
| 20260508105724 | 3 | 83 | 3.2 | 4.8 | 0.00 | 0.00 | 0.00 | 79 | 930.4 |
| 20260508105221 | 3 | 82 | 3.2 | 4.8 | 0.00 | 0.00 | 0.00 | 79 | 930.0 |
| 20260508104718 | 3 | 93 | 4.8 | 4.8 | 0.00 | 0.00 | 0.00 | 80 | 930.1 |
| 20260508104215 | 3 | 76 | 1.6 | 4.8 | 0.00 | 0.00 | 0.00 | 80 | 930.3 |
| 20260508103712 | 3 | 119 | 4.8 | 4.8 | 0.00 | 0.00 | 0.00 | 81 | 930.3 |
| 20260508103209 | 3 | 106 | 3.2 | 8.0 | 0.00 | 0.00 | 0.00 | 81 | 930.4 |
| 20260508102706 | 3 | 130 | 6.4 | 8.0 | 0.00 | 0.00 | 0.00 | 81 | 930.4 |
| 20260508102204 | 3 | 106 | 4.8 | 8.0 | 0.00 | 0.00 | 0.00 | 80 | 930.4 |
| 20260508101701 | 3 | 106 | 3.2 | 3.2 | 0.00 | 0.00 | 0.00 | 80 | 930.3 |
| 20260508101159 | 3 | 108 | 6.4 | 9.7 | 0.00 | 0.00 | 0.00 | 80 | 930.4 |
| 20260508100656 | 3 | 102 | 6.4 | 9.7 | 0.00 | 0.00 | 0.00 | 80 | 930.4 |
| 20260508100154 | 3 | 111 | 4.8 | 8.0 | 0.00 | 0.00 | 0.00 | 80 | 930.3 |
| 20260508095650 | 3 | 91 | 0.0 | 8.0 | 0.00 | 0.00 | 0.00 | 81 | 930.3 |
| 20260508095147 | 3 | 159 | 6.4 | 9.7 | 0.00 | 0.00 | 0.00 | 80 | 930.3 |
| 20260508094644 | 3 | 126 | 6.4 | 11.3 | 0.00 | 0.00 | 0.00 | 80 | 930.2 |
| 20260508094141 | 3 | 122 | 4.8 | 8.0 | 0.00 | 0.00 | 0.00 | 80 | 930.3 |
| 20260508093638 | 3 | 92 | 6.4 | 8.0 | 0.00 | 0.00 | 0.00 | 80 | 930.4 |
| 20260508093136 | 3 | 119 | 4.8 | 11.3 | 0.00 | 0.00 | 0.00 | 80 | 930.3 |
| 20260508092633 | 3 | 130 | 8.0 | 12.9 | 0.00 | 0.00 | 0.00 | 80 | 930.2 |
| 20260508092131 | 3 | 124 | 4.8 | 8.0 | 0.00 | 0.00 | 0.00 | 80 | 930.4 |
| 20260508091628 | 3 | 65 | 1.6 | 4.8 | 0.00 | 0.00 | 0.00 | 81 | 930.0 |
| 20260508091125 | 3 | 104 | 3.2 | 4.8 | 0.00 | 0.00 | 0.00 | 80 | 930.3 |
| 20260508090623 | 3 | 114 | 3.2 | 8.0 | 0.00 | 0.00 | 0.00 | 80 | 930.5 |
| 20260508090120 | 3 | 120 | 4.8 | 8.0 | 0.00 | 0.00 | 0.00 | 80 | 930.4 |
| 20260508085616 | 3 | 93 | 1.6 | 4.8 | 0.00 | 0.00 | 0.00 | 79 | 930.4 |
| 20260508085113 | 3 | 107 | 3.2 | 4.8 | 0.00 | 0.00 | 0.00 | 79 | 930.5 |
| 20260508084610 | 3 | 120 | 4.8 | 8.0 | 0.00 | 0.00 | 0.00 | 79 | 930.5 |
| 20260508084108 | 3 | 121 | 4.8 | 8.0 | 0.00 | 0.00 | 0.00 | 79 | 930.4 |
| 20260508083605 | 3 | 122 | 4.8 | 8.0 | 0.00 | 0.00 | 0.00 | 79 | 930.4 |
| 20260508083102 | 3 | 123 | 4.8 | 8.0 | 0.00 | 0.00 | 0.00 | 79 | 930.5 |
| 20260508082557 | 3 | 120 | 4.8 | 8.0 | 0.00 | 0.00 | 0.00 | 78 | 930.7 |
| 20260508082054 | 4 | 122 | 4.8 | 9.7 | 0.00 | 0.00 | 0.00 | 78 | 930.5 |
| 20260508081552 | 4 | 109 | 6.4 | 9.7 | 0.00 | 0.00 | 0.00 | 77 | 930.7 |
| 20260508081047 | 4 | 127 | 8.0 | 11.3 | 0.00 | 0.00 | 0.00 | 77 | 930.4 |
| 20260508080546 | 5 | 125 | 9.7 | 11.3 | 0.00 | 0.00 | 0.00 | 75 | 930.7 |
| 20260508080043 | 5 | 144 | 6.4 | 9.7 | 0.00 | 0.00 | 0.00 | 75 | 930.5 |
| 20260508075539 | 5 | 92 | 3.2 | 4.8 | 0.00 | 0.00 | 0.00 | 75 | 930.5 |
| 20260508075037 | 5 | 106 | 4.8 | 8.0 | 0.00 | 0.00 | 0.00 | 74 | 930.9 |
| 20260508074534 | 5 | 120 | 1.6 | 4.8 | 0.00 | 0.00 | 0.00 | 74 | 930.8 |
| 20260508074031 | 5 | 102 | 3.2 | 4.8 | 0.00 | 0.00 | 0.00 | 75 | 930.7 |
| 20260508073528 | 5 | 114 | 4.8 | 8.0 | 0.00 | 0.00 | 0.00 | 76 | 930.5 |
| 20260508073026 | 5 | 139 | 8.0 | 9.7 | 0.00 | 0.00 | 0.00 | 76 | 930.8 |
| 20260508072521 | 5 | 131 | 4.8 | 8.0 | 0.00 | 0.00 | 0.00 | 75 | 930.5 |
| 20260508072019 | 5 | 87 | 0.0 | 0.0 | 0.00 | 0.00 | 0.00 | 75 | 930.9 |
| 20260508071517 | 5 | 125 | 3.2 | 4.8 | 0.00 | 0.00 | 0.00 | 75 | 930.5 |
| 20260508071014 | 5 | 126 | 4.8 | 8.0 | 0.00 | 0.00 | 0.00 | 74 | 930.5 |
| 20260508070512 | 5 | 100 | 0.0 | 3.2 | 0.00 | 0.00 | 0.00 | 74 | 930.5 |
| 20260508070010 | 5 | 120 | 0.0 | 4.8 | 0.00 | 0.00 | 0.00 | 74 | 930.4 |
| 20260508065507 | 5 | 115 | 3.2 | 8.0 | 0.00 | 0.00 | 0.00 | 74 | 930.5 |
| 20260508065006 | 5 | 114 | 0.0 | 0.0 | 0.00 | 0.00 | 0.00 | 74 | 930.5 |
| 20260508064503 | 5 | 109 | 0.0 | 1.6 | 0.00 | 0.00 | 0.00 | 74 | 930.7 |
| 20260508064000 | 5 | 118 | 1.6 | 3.2 | 0.00 | 0.00 | 0.00 | 75 | 930.3 |
| 20260508063457 | 5 | 91 | 0.0 | 0.0 | 0.00 | 0.00 | 0.00 | 74 | 930.4 |
| 20260508062955 | 5 | 117 | 0.0 | 0.0 | 0.00 | 0.00 | 0.00 | 73 | 930.5 |
| 20260508062453 | 5 | 135 | 0.0 | 0.0 | 0.00 | 0.00 | 0.00 | 73 | 930.4 |
| 20260508061949 | 5 | 87 | 0.0 | 0.0 | 0.00 | 0.00 | 0.00 | 72 | 930.3 |
| 20260508061447 | 5 | 92 | 0.0 | 0.0 | 0.00 | 0.00 | 0.00 | 73 | 930.5 |
| 20260508060943 | 5 | 97 | 0.0 | 0.0 | 0.00 | 0.00 | 0.00 | 72 | 930.2 |
| 20260508060441 | 5 | 60 | 0.0 | 0.0 | 0.00 | 0.00 | 0.00 | 72 | 930.4 |